Weather History for Bangkok (Suvarnabhumi), Thailand

Change the Weather History Date:

Friday, December 6, 2013

  Actual Average (VTBD) Record (VTBD)
Temperature  
Mean Temperature 80 °F -  
Max Temperature 88 °F 89 °F 95 °F (2012)
Min Temperature 71 °F 69 °F 69 °F (2004)
Cooling Degree Days 14    
Growing Degree Days 30 (Base 50)    
Moisture  
Dew Point 64 °F    
Average Humidity 61    
Maximum Humidity 78    
Minimum Humidity 37    
Precipitation  
Precipitation 0.00 in 0.01 in - ()
Sea Level Pressure  
Sea Level Pressure 29.84 in    
Wind  
Wind Speed 6 mph ()    
Max Wind Speed 15 mph    
Max Gust Speed -    
Visibility 5.9 miles    
Events      
Averages and records for this station are not official NWS values.
T = Trace of Precipitation, MM = Missing Value Source: Averaged Metar Reports

Daily Weather History Graph

Daily Weather History Graph

Search for Another Location

Airport:

Trip Planner

Search our weather history database for the weather conditions in past years. The results will help you decide how hot, cold, wet, or windy it might be!

Date:

Astronomy

Dec. 06, 2013 Rise Set
Actual Time 6:25 AM ICT 5:48 PM ICT
Civil Twilight 6:02 AM ICT 6:11 PM ICT
Nautical Twilight 5:36 AM ICT 6:37 PM ICT
Astronomical Twilight 5:10 AM ICT 7:04 PM ICT
Moon 9:24 AM ICT (12/6) 9:21 PM ICT (12/6)
Length of Visible Light 12h 08m
Length of Day
11h 22m
Waxing Crescent, 14% of the Moon is Illuminated
Dec 6
Waxing Crescent
Dec 9
First Quarter
Dec 17
Full
Dec 25
Last Quarter
Jan 1
New

Hourly Weather History & Observations

Time (ICT) Temp. Heat Index Dew Point Humidity Pressure Visibility Wind Dir Wind Speed Gust Speed Precip Events Conditions
12:00 AM 77.0 °F - 66.2 °F 69% 29.83 in 6.2 mi East 3.5 mph - N/A   Scattered Clouds
12:30 AM 77.0 °F - 66.2 °F 69% 29.83 in 6.2 mi ENE 3.5 mph - N/A   Scattered Clouds
1:00 AM 75 °F - 67 °F 70% 29.83 in 5 mi East 2.3 mph - -   Mist
1:00 AM 77.0 °F - 68.0 °F 74% 29.83 in 6.2 mi ENE 4.6 mph - N/A   Scattered Clouds
1:30 AM 77.0 °F - 66.2 °F 69% 29.83 in 6.2 mi NE 4.6 mph - N/A   Scattered Clouds
2:00 AM 75.2 °F - 66.2 °F 73% 29.83 in 6.2 mi NE 3.5 mph - N/A   Scattered Clouds
2:30 AM 75.2 °F - 66.2 °F 73% 29.83 in 6.2 mi NNE 3.5 mph - N/A   Scattered Clouds
3:00 AM 73.4 °F - 64.4 °F 73% 29.80 in 6.2 mi North 5.8 mph - N/A   Scattered Clouds
3:30 AM 73.4 °F - 64.4 °F 73% 29.80 in 6.2 mi NNE 4.6 mph - N/A   Scattered Clouds
4:00 AM 73 °F - 67 °F 76% 29.79 in 5 mi NE 3.5 mph - -   Mist
4:00 AM 71.6 °F - 64.4 °F 78% 29.80 in 6.2 mi NNW 3.5 mph - N/A   Scattered Clouds
4:30 AM 71.6 °F - 64.4 °F 78% 29.80 in 6.2 mi North 3.5 mph - N/A   Scattered Clouds
5:00 AM 73.4 °F - 66.2 °F 78% 29.80 in 5.6 mi NNE 3.5 mph - N/A   Scattered Clouds
5:30 AM 73.4 °F - 66.2 °F 78% 29.83 in 5.6 mi North 3.5 mph - N/A   Scattered Clouds
6:00 AM 73.4 °F - 64.4 °F 73% 29.83 in 5.6 mi North 4.6 mph - N/A   Scattered Clouds
6:30 AM 71.6 °F - 64.4 °F 78% 29.83 in 5.0 mi NNE 5.8 mph - N/A   Scattered Clouds
7:00 AM 72 °F - 66 °F 77% 29.83 in 5 mi ENE 3.5 mph - -   Mist
7:00 AM 71.6 °F - 64.4 °F 78% 29.86 in 5.0 mi NNE 5.8 mph - N/A   Scattered Clouds
7:30 AM 73.4 °F - 66.2 °F 78% 29.86 in 5.0 mi NNE 4.6 mph - N/A   Scattered Clouds
8:00 AM 77.0 °F - 66.2 °F 69% 29.86 in 5.6 mi NE 3.5 mph - N/A   Scattered Clouds
8:30 AM 78.8 °F - 66.2 °F 65% 29.89 in 6.2 mi ENE 10.4 mph - N/A   Scattered Clouds
9:00 AM 78.8 °F - 64.4 °F 61% 29.89 in - East 12.7 mph - N/A   Clear
9:30 AM 80.6 °F 82.3 °F 64.4 °F 58% 29.89 in - ENE 12.7 mph - N/A   Clear
10:00 AM 80.6 °F 82.3 °F 64.4 °F 58% 29.89 in - ENE 15.0 mph - N/A   Clear
10:30 AM 80.6 °F 81.8 °F 62.6 °F 54% 29.89 in - East 15.0 mph - N/A   Clear
11:00 AM 82.4 °F 83.4 °F 62.6 °F 51% 29.89 in - ENE 13.8 mph - N/A   Clear
11:30 AM 82.4 °F 83.4 °F 62.6 °F 51% 29.89 in - ENE 15.0 mph - N/A   Clear
12:00 PM 82.4 °F 83.9 °F 64.4 °F 54% 29.86 in - ENE 12.7 mph - N/A   Clear
12:30 PM 84.2 °F 85.6 °F 64.4 °F 51% 29.86 in - ENE 13.8 mph - N/A   Clear
1:00 PM 87 °F - 64 °F 37% 29.81 in 6 mi NNE 6.9 mph - -   Clear
1:00 PM 84.2 °F 85.0 °F 62.6 °F 48% 29.83 in - ENE 13.8 mph - N/A   Clear
1:30 PM 84.2 °F 85.0 °F 62.6 °F 48% 29.83 in 6.2 mi ENE 11.5 mph - N/A   Scattered Clouds
2:00 PM 86.0 °F 86.6 °F 62.6 °F 45% 29.83 in 6.2 mi NE 12.7 mph - N/A   Scattered Clouds
2:30 PM 86.0 °F 86.6 °F 62.6 °F 45% 29.80 in 6.2 mi ENE 11.5 mph - N/A   Scattered Clouds
3:00 PM 86.0 °F 86.6 °F 62.6 °F 45% 29.80 in 6.2 mi ENE 10.4 mph - N/A   Scattered Clouds
3:30 PM 86.0 °F 86.1 °F 60.8 °F 43% 29.80 in 6.2 mi ENE 11.5 mph - N/A   Scattered Clouds
4:00 PM 87 °F - 64 °F 37% 29.78 in 6 mi ENE 9.2 mph - -   Clear
4:00 PM 86.0 °F 86.1 °F 60.8 °F 43% 29.80 in 6.2 mi NE 10.4 mph - N/A   Scattered Clouds
4:30 PM 86.0 °F 86.1 °F 60.8 °F 43% 29.80 in 6.2 mi NE 11.5 mph - N/A   Scattered Clouds
5:00 PM 84.2 °F 84.4 °F 60.8 °F 45% 29.80 in 6.2 mi NE 9.2 mph - N/A   Scattered Clouds
5:30 PM 84.2 °F 85.0 °F 62.6 °F 48% 29.83 in - NE 8.1 mph - N/A   Clear
6:00 PM 82.4 °F 83.4 °F 62.6 °F 51% 29.83 in - NNE 5.8 mph - N/A   Clear
6:30 PM 80.6 °F 81.8 °F 62.6 °F 54% 29.83 in - NNE 4.6 mph - N/A   Clear
7:00 PM 83 °F - 67 °F 50% 29.83 in 6 mi Calm Calm - -   Clear
7:00 PM 80.6 °F 82.3 °F 64.4 °F 58% 29.86 in - NE 5.8 mph - N/A   Clear
7:30 PM 78.8 °F - 64.4 °F 61% 29.86 in - Variable 2.3 mph - N/A   Clear
8:00 PM 78.8 °F - 64.4 °F 61% 29.86 in - NE 3.5 mph - N/A   Clear
8:30 PM 78.8 °F - 66.2 °F 65% 29.89 in - NE 3.5 mph - N/A   Clear
9:00 PM 78.8 °F - 66.2 °F 65% 29.89 in - ENE 3.5 mph - N/A   Clear
9:30 PM 78.8 °F - 66.2 °F 65% 29.89 in - ENE 3.5 mph - N/A   Clear
10:00 PM 77.0 °F - 64.4 °F 65% 29.89 in - NE 4.6 mph - N/A   Clear
10:30 PM 77.0 °F - 64.4 °F 65% 29.89 in - ENE 3.5 mph - N/A   Clear
11:00 PM 77.0 °F - 66.2 °F 69% 29.89 in - NE 3.5 mph - N/A   Clear
11:30 PM 75.2 °F - 66.2 °F 73% 29.89 in - ENE 3.5 mph - N/A   Clear